Weather History for Bedford, MA

Change the Weather History Date:

Tuesday, July 16, 2013

  Actual Average Record
Temperature  
Mean Temperature 78 °F -  
Max Temperature 95 °F 84 °F 96 °F (1968)
Min Temperature 64 °F 61 °F 46 °F (1966)
Cooling Degree Days 14    
Growing Degree Days 28 (Base 50)    
Moisture  
Dew Point 67 °F    
Average Humidity 68    
Maximum Humidity 97    
Minimum Humidity 38    
Precipitation  
Precipitation 0.00 in - - ()
Sea Level Pressure  
Sea Level Pressure 30.16 in    
Wind  
Wind Speed 3 mph (North)    
Max Wind Speed 13 mph    
Max Gust Speed 18 mph    
Visibility 10 miles    
Events      
Averages and records for this station are not official NWS values.
T = Trace of Precipitation, MM = Missing Value Source: NWS Daily Summary

Daily Weather History Graph

Daily Weather History Graph

Search for Another Location

Airport:

Trip Planner

Search our weather history database for the weather conditions in past years. The results will help you decide how hot, cold, wet, or windy it might be!

Date:

Astronomy

Jul. 16, 2013 Rise Set
Actual Time 5:22 AM EDT 8:19 PM EDT
Civil Twilight 4:48 AM EDT 8:53 PM EDT
Nautical Twilight 4:06 AM EDT 9:35 PM EDT
Astronomical Twilight 3:16 AM EDT 10:25 PM EDT
Moon 1:54 PM EDT (7/16) No Moon Set
Length of Visible Light 16h 04m
Length of Day
14h 57m
First Quarter, 56% of the Moon is Illuminated
Jul 16
First Quarter
Jul 22
Full
Jul 29
Last Quarter
Aug 6
New
Aug 14
First Quarter

Hourly Weather History & Observations

Time (EDT) Temp. Heat Index Dew Point Humidity Pressure Visibility Wind Dir Wind Speed Gust Speed Precip Events Conditions
12:56 AM 71.1 °F - 70.0 °F 96% 30.14 in 10.0 mi Calm Calm - N/A   Clear
1:56 AM 70.0 °F - 69.1 °F 97% 30.15 in 10.0 mi Calm Calm - N/A   Clear
2:56 AM 69.1 °F - 68.0 °F 96% 30.14 in 10.0 mi Calm Calm - N/A   Clear
3:56 AM 66.0 °F - 64.9 °F 96% 30.14 in 10.0 mi Calm Calm - N/A   Clear
4:56 AM 64.9 °F - 64.0 °F 97% 30.15 in 10.0 mi Calm Calm - N/A   Clear
5:56 AM 66.9 °F - 64.9 °F 93% 30.16 in 10.0 mi Calm Calm - N/A   Clear
6:56 AM 72.0 °F - 68.0 °F 87% 30.17 in 10.0 mi Calm Calm - N/A   Clear
7:56 AM 78.1 °F - 68.0 °F 71% 30.17 in 10.0 mi Calm Calm - N/A   Clear
8:56 AM 82.9 °F 85.8 °F 68.0 °F 60% 30.17 in 10.0 mi NW 9.2 mph - N/A   Clear
9:56 AM 86.0 °F 90.1 °F 69.1 °F 57% 30.17 in 10.0 mi North 6.9 mph - N/A   Clear
10:56 AM 88.0 °F 92.1 °F 69.1 °F 53% 30.16 in 10.0 mi NW 5.8 mph - N/A   Clear
11:56 AM 90.0 °F 94.5 °F 69.1 °F 50% 30.16 in 10.0 mi Variable 5.8 mph - N/A   Clear
12:56 PM 91.9 °F 94.1 °F 64.9 °F 41% 30.15 in 10.0 mi North 10.4 mph 17.3 mph N/A   Clear
1:56 PM 93.0 °F 96.4 °F 66.9 °F 42% 30.14 in 10.0 mi NNW 8.1 mph - N/A   Scattered Clouds
2:56 PM 93.9 °F 97.0 °F 66.0 °F 40% 30.14 in 10.0 mi NW 12.7 mph - N/A   Scattered Clouds
3:56 PM 93.0 °F 94.6 °F 64.0 °F 38% 30.13 in 10.0 mi NNW 12.7 mph 18.4 mph N/A   Partly Cloudy
4:56 PM 93.0 °F 94.6 °F 64.0 °F 38% 30.13 in 10.0 mi NNW 10.4 mph - N/A   Clear
5:56 PM 89.1 °F 93.7 °F 69.1 °F 52% 30.13 in 10.0 mi ESE 8.1 mph - N/A   Partly Cloudy
6:56 PM 84.0 °F 86.5 °F 66.9 °F 56% 30.15 in 10.0 mi East 6.9 mph - N/A   Scattered Clouds
7:56 PM 81.0 °F 83.0 °F 66.0 °F 60% 30.16 in 10.0 mi East 6.9 mph - N/A   Clear
8:56 PM 79.0 °F - 66.0 °F 64% 30.17 in 10.0 mi ESE 3.5 mph - N/A   Scattered Clouds
9:56 PM 77.0 °F - 66.0 °F 69% 30.18 in 10.0 mi Calm Calm - N/A   Scattered Clouds
10:56 PM 73.0 °F - 66.9 °F 81% 30.19 in 10.0 mi Calm Calm - N/A   Clear
11:56 PM 71.1 °F - 68.0 °F 90% 30.19 in 10.0 mi Calm Calm - N/A   Scattered Clouds